AEE21D LGSK-LGAV

Flight info

Callsign AEE21D
Flight time 0h 22m
Altitude 17000
Route SIGFO M749 ROPOX
Aircraft A321/M-SDE3FGHIRWY/LB1

Departure

Time 2026-05-08 12:22
Airport Skiathos Island National Airport (LGSK)

Arrival

Time 2026-05-08 12:45
Airport Athens Eleftherios Venizelos International Airport (LGAV)
Time Latitude Longitude Altitude Speed Heading
2026-05-08 12:09 39.17950 23.50257 39 ft 0 kts 289°
2026-05-08 12:14 39.17947 23.50269 40 ft 2 kts 288°
2026-05-08 12:14 39.17942 23.50288 40 ft 2 kts 288°
2026-05-08 12:15 39.17936 23.50310 39 ft 3 kts 283°
2026-05-08 12:15 39.17933 23.50330 36 ft 2 kts 264°
2026-05-08 12:15 39.17936 23.50344 36 ft 2 kts 218°
2026-05-08 12:15 39.17945 23.50351 39 ft 2 kts 200°
2026-05-08 12:16 39.17953 23.50355 36 ft 0 kts 198°
2026-05-08 12:17 39.17950 23.50354 39 ft 2 kts 198°
2026-05-08 12:18 39.17938 23.50370 38 ft 5 kts 117°
2026-05-08 12:18 39.17887 23.50445 41 ft 13 kts 178°
2026-05-08 12:18 39.17779 23.50399 38 ft 22 kts 195°
2026-05-08 12:18 39.17608 23.50325 41 ft 30 kts 199°
2026-05-08 12:19 39.17383 23.50220 35 ft 29 kts 199°
2026-05-08 12:19 39.17296 23.50183 29 ft 19 kts 198°
2026-05-08 12:19 39.17152 23.50121 21 ft 2 kts 199°
2026-05-08 12:19 39.17125 23.50108 22 ft 7 kts 200°
2026-05-08 12:20 39.17065 23.50066 17 ft 13 kts 223°
2026-05-08 12:20 39.17023 23.50058 11 ft 2 kts 105°
2026-05-08 12:20 39.17029 23.50064 14 ft 1 kts 37°
2026-05-08 12:20 39.17036 23.50066 14 ft 0 kts 21°
2026-05-08 12:22 39.17240 23.50161 29 ft 79 kts 19°
2026-05-08 12:22 39.18032 23.50512 124 ft 152 kts 19°
2026-05-08 12:22 39.19045 23.50973 1065 ft 158 kts 22°
2026-05-08 12:22 39.20121 23.51457 1904 ft 166 kts 21°
2026-05-08 12:23 39.21265 23.51969 2216 ft 184 kts 20°
2026-05-08 12:23 39.22543 23.52537 2409 ft 205 kts 20°
2026-05-08 12:23 39.23936 23.53157 2789 ft 217 kts 20°
2026-05-08 12:23 39.25265 23.54213 3089 ft 237 kts 49°
2026-05-08 12:24 39.25997 23.56184 3428 ft 256 kts 86°
2026-05-08 12:24 39.25672 23.58434 4033 ft 261 kts 122°
2026-05-08 12:24 39.24378 23.60016 4797 ft 260 kts 158°
2026-05-08 12:24 39.22628 23.60537 5591 ft 260 kts 175°
2026-05-08 12:25 39.20825 23.60836 6436 ft 263 kts 177°
2026-05-08 12:25 39.18988 23.61119 7179 ft 269 kts 178°
2026-05-08 12:25 39.17748 23.61309 7692 ft 272 kts 178°
2026-05-08 12:25 39.15217 23.61704 8796 ft 277 kts 179°
2026-05-08 12:26 39.13285 23.62011 9566 ft 282 kts 179°
2026-05-08 12:26 39.11320 23.62325 9970 ft 285 kts 180°
2026-05-08 12:26 39.09349 23.62644 10063 ft 286 kts 179°
2026-05-08 12:26 39.08038 23.62859 10078 ft 287 kts 179°
2026-05-08 12:27 39.06060 23.63184 10085 ft 287 kts 179°
2026-05-08 12:27 39.04082 23.63510 10088 ft 287 kts 179°
2026-05-08 12:27 39.02101 23.63835 10086 ft 287 kts 179°
2026-05-08 12:27 39.00122 23.64159 10088 ft 288 kts 179°
2026-05-08 12:28 38.98134 23.64482 10088 ft 288 kts 179°
2026-05-08 12:28 38.96146 23.64805 10088 ft 288 kts 179°
2026-05-08 12:28 38.94156 23.65129 10087 ft 290 kts 179°
2026-05-08 12:28 38.92159 23.65440 10089 ft 289 kts 180°
2026-05-08 12:29 38.90170 23.65736 10087 ft 288 kts 180°
2026-05-08 12:29 38.88161 23.66025 10093 ft 299 kts 180°
2026-05-08 12:29 38.85991 23.66412 10087 ft 330 kts 171°
2026-05-08 12:29 38.83801 23.67524 10089 ft 343 kts 161°
2026-05-08 12:30 38.81629 23.68819 10090 ft 345 kts 160°
2026-05-08 12:30 38.79456 23.70126 10093 ft 345 kts 160°
2026-05-08 12:30 38.77279 23.71434 10092 ft 345 kts 160°
2026-05-08 12:30 38.75107 23.72738 10089 ft 345 kts 160°
2026-05-08 12:31 38.72931 23.74039 10090 ft 344 kts 161°
2026-05-08 12:31 38.70761 23.75329 10086 ft 344 kts 160°
2026-05-08 12:31 38.68586 23.76612 10088 ft 344 kts 161°
2026-05-08 12:31 38.66420 23.77892 10092 ft 344 kts 160°
2026-05-08 12:32 38.64257 23.79163 9824 ft 341 kts 160°
2026-05-08 12:32 38.62117 23.80444 9274 ft 338 kts 161°
2026-05-08 12:32 38.59995 23.81711 8756 ft 334 kts 160°
2026-05-08 12:32 38.57899 23.82962 8270 ft 331 kts 160°
2026-05-08 12:33 38.55849 23.84186 8079 ft 318 kts 160°
2026-05-08 12:33 38.53888 23.85365 8090 ft 308 kts 160°
2026-05-08 12:33 38.51978 23.86517 8065 ft 307 kts 160°
2026-05-08 12:33 38.50029 23.87693 7817 ft 306 kts 160°
2026-05-08 12:34 38.48113 23.88849 7571 ft 304 kts 160°
2026-05-08 12:34 38.46209 23.89995 7331 ft 301 kts 160°
2026-05-08 12:34 38.44311 23.91137 7086 ft 300 kts 160°
2026-05-08 12:34 38.42426 23.92271 6847 ft 299 kts 160°
2026-05-08 12:35 38.40544 23.93399 6612 ft 298 kts 160°
2026-05-08 12:35 38.38675 23.94520 6361 ft 296 kts 160°
2026-05-08 12:35 38.36817 23.95630 6112 ft 293 kts 160°
2026-05-08 12:35 38.35019 23.96679 5873 ft 283 kts 161°
2026-05-08 12:36 38.33215 23.97667 5605 ft 275 kts 162°
2026-05-08 12:36 38.31494 23.98578 5361 ft 268 kts 162°
2026-05-08 12:36 38.29777 23.99477 5116 ft 266 kts 162°
2026-05-08 12:36 38.28074 24.00367 4874 ft 264 kts 162°
2026-05-08 12:37 38.26378 24.01251 4613 ft 262 kts 161°
2026-05-08 12:37 38.24697 24.02132 4355 ft 261 kts 161°
2026-05-08 12:37 38.23032 24.03009 4114 ft 256 kts 160°
2026-05-08 12:37 38.21408 24.03869 3856 ft 248 kts 160°
2026-05-08 12:38 38.19825 24.04705 3610 ft 244 kts 160°
2026-05-08 12:38 38.18278 24.05522 3374 ft 239 kts 159°
2026-05-08 12:38 38.16756 24.06325 3122 ft 234 kts 160°
2026-05-08 12:38 38.15272 24.07107 3010 ft 225 kts 160°
2026-05-08 12:39 38.13880 24.07843 3001 ft 211 kts 160°
2026-05-08 12:39 38.12530 24.08547 3004 ft 209 kts 163°
2026-05-08 12:39 38.11113 24.08845 3010 ft 207 kts 184°
2026-05-08 12:39 38.09725 24.08471 3007 ft 203 kts 204°
2026-05-08 12:40 38.08572 24.07555 3015 ft 192 kts 216°
2026-05-08 12:40 38.07564 24.06589 3012 ft 167 kts 215°
2026-05-08 12:40 38.06707 24.05767 3027 ft 146 kts 216°
2026-05-08 12:40 38.05913 24.05009 2956 ft 140 kts 216°
2026-05-08 12:41 38.05143 24.04273 2828 ft 137 kts 215°
2026-05-08 12:41 38.04386 24.03551 2668 ft 135 kts 215°
2026-05-08 12:41 38.03633 24.02832 2492 ft 135 kts 214°
2026-05-08 12:41 38.02883 24.02116 2326 ft 135 kts 215°
2026-05-08 12:42 38.02132 24.01399 2143 ft 134 kts 214°
2026-05-08 12:42 38.01385 24.00687 1958 ft 135 kts 215°
2026-05-08 12:42 38.00624 23.99961 1779 ft 137 kts 216°
2026-05-08 12:42 37.99872 23.99240 1625 ft 136 kts 215°
2026-05-08 12:43 37.99118 23.98530 1442 ft 136 kts 214°
2026-05-08 12:43 37.98361 23.97805 1238 ft 135 kts 214°
2026-05-08 12:43 37.97622 23.97088 1054 ft 137 kts 213°
2026-05-08 12:43 37.96851 23.96360 835 ft 131 kts 217°
2026-05-08 12:44 37.96114 23.95656 721 ft 135 kts 216°
2026-05-08 12:44 37.95345 23.94924 512 ft 141 kts 214°
2026-05-08 12:44 37.94587 23.94202 338 ft 132 kts 215°
2026-05-08 12:44 37.93910 23.93564 296 ft 108 kts 216°
2026-05-08 12:45 37.93430 23.93109 292 ft 70 kts 217°
2026-05-08 12:45 37.93115 23.92853 292 ft 49 kts 196°
2026-05-08 12:45 37.92935 23.92845 301 ft 13 kts 133°
2026-05-08 12:45 37.92945 23.92903 301 ft 8 kts 54°
2026-05-08 12:46 37.93005 23.92982 301 ft 17 kts 39°
2026-05-08 12:46 37.93126 23.93099 303 ft 26 kts 36°
2026-05-08 12:46 37.93295 23.93261 299 ft 31 kts 37°
2026-05-08 12:46 37.93425 23.93391 301 ft 16 kts 58°
2026-05-08 12:47 37.93401 23.93493 304 ft 15 kts 126°
2026-05-08 12:47 37.93309 23.93643 301 ft 28 kts 128°
2026-05-08 12:47 37.93187 23.93845 303 ft 23 kts 126°
2026-05-08 12:47 37.93089 23.94009 303 ft 24 kts 128°
2026-05-08 12:48 37.92985 23.94182 302 ft 26 kts 127°
2026-05-08 12:48 37.92884 23.94366 302 ft 20 kts 104°
2026-05-08 12:48 37.92943 23.94467 302 ft 20 kts 37°
2026-05-08 12:48 37.93088 23.94603 301 ft 32 kts 37°
2026-05-08 12:49 37.93275 23.94781 302 ft 33 kts 36°
2026-05-08 12:49 37.93464 23.94957 302 ft 34 kts 36°
2026-05-08 12:49 37.93654 23.95138 301 ft 23 kts 37°
2026-05-08 12:49 37.93784 23.95264 301 ft 20 kts 38°
2026-05-08 12:50 37.93899 23.95325 303 ft 10 kts 336°
2026-05-08 12:50 37.93947 23.95285 302 ft 7 kts 12°
2026-05-08 12:50 37.93994 23.95328 300 ft 9 kts 38°
2026-05-08 12:50 37.94001 23.95335 300 ft 0 kts 37°